Powrót do katalogu

COSMOS 2251 DEB

AktywnyLEO
NORAD 35453·DEBRIS·🇷🇺 Russia

Wystrzelony Jun 16, 1993 z Plesetsk Cosmodrome

Loading…

Następne Przeloty (najbliższe 24 godziny)

TLE

Starzejące sięSource: Space-Track

Epoka: Sep 12, 2026, 06:38 UTC

1 35453U 93036AKX 26255.27686986  .00001119  00000-0  36146-3 0  9998
2 35453  74.0058 235.2360 0069681 301.3878  58.0472 14.38963708901529

Śledź COSMOS 2251 DEB w czasie rzeczywistym z AllMySat

Download on the App Store